Location: *
(34.8620°S, 39.3380°E)
Time: 19:53:46
(UTC+00:00)

SKYSAT 2 - Pass Details

Date: 09 December 2023
Orbit: 613 x 623 km, 98.3° (Epoch: 01 March)

Event Time Altitude Azimuth Distance (km) Brightness Sun altitude
Exits shadow 19:54:52 45° 189° (S) 865 ? -29.2°
Drops below altitude 10° 19:57:57 10° 192° (SSW) 2,025 ? -29.5°
Sets 20:00:10 0° 192° (SSW) 2,939 ? -29.6°
